COSMOS 1275 DEB, 13473

Orbit data source: Space-Track

COSMOS 1275 DEB, 13473 is space debris in LEO originally from a launch on Thu, 04 Jun 1981 UTC launched from the Plesetsk Missile And Space Complex (PKMTR). Debris objects in space refer to the collection of defunct objects orbiting the Earth. Examples of debris include non-operational satellites, rocket bodies, and fragments generated from explosions, collisions, or faulty payload assembly.

Loading next visibility...
Identifier
13473, 1981-053FV
Orbit
LEO
Country
Flag of CISCIS
Related business
Manufacturer
Unknown
Mission
Spacecraft
Bus & Motor
Unknown
Mass
Unknown
Launch date (UTC)
1981-06-04 (45 years ago)
Launch vehicle
Unknown
Launch site
Plesetsk Missile And Space Complex (PKMTR)
Object type
Payload
Rocket body
Debris
Shape & HBR
Unknown shape, 0.1 m
Radar Cross Section
Medium (>0.1 m² and <1 m²)

Expand to show TLE details & history
Last TLE update: 2 days ago

TLE from 2 days ago
0 COSMOS 1275 DEB
1 13473U 81053FV  26171.40406619  .00002372  00000-0  97787-3 0  9997
2 13473  82.8330 330.7110 0041697  34.6995 353.4302 14.26030609248298
Epoch: 2026-06-20T09:41Z
TLE epoch observation values (Epoch: 2026-06-20T09:41:51.318Z)
Latitude
27.87861°
Longitude
-79.57834°
Altitude
778.741 km
Speed
7.483 km/s
True Right ascension
22h 18m 01s
True Declination
27° 44' 14"
Sunlit
Object was in daylight at epoch
Visualization orbit readout
Latitude
Unknown
Longitude
Unknown
Altitude
Unknown
Speed
Unknown
Apparent Right ascension
Unknown
Apparent Declination
Unknown
Sunlit
N/A
Visualization observer readout
Local Sidereal Time
04:16:50
Azimuth
Unknown
Elevation
Unknown
Doppler factor
Unknown
Orbital elements
Apogee altitude
832.052 km
Perigee altitude
772.173 km
Semi-major axis
7,180.249 km
Eccentricity
0.00417
Inclination
82.833°
RAAN
330.711°
Arg. of periapsis
34.6995°
True anomaly
353.37525°
Mean anomaly
353.4302°
Eccentric anomaly
353.40275°
Mean motion
3.56725 °/min
Orbital period
100.92 mins
BSTAR
0.00097787
Loading maneuver chart data...
Computing Atmospheric mass density...
Loading historical data...
Loading historical data...
Loading historical data...
Loading historical data...
Loading historical data...
Loading historical data...
Loading historical data...

Documentation

Showing up to 5 results
|